Weather History for KFST - January, 2013

Change the Weather History Date:

Thursday, January 31, 2013

  Actual Average Record
Temperature  
Mean Temperature 50 °F -  
Max Temperature 63 °F 60 °F 82 °F (2006)
Min Temperature 37 °F 36 °F 30 °F (2001)
Degree Days  
Heating Degree Days 15    
Moisture  
Dew Point 14 °F    
Average Humidity 26    
Maximum Humidity 37    
Minimum Humidity 14    
Precipitation  
Precipitation 0.00 in - - ()
Sea Level Pressure  
Sea Level Pressure 30.15 in    
Wind  
Wind Speed 11 mph (SW)    
Max Wind Speed 14 mph    
Max Gust Speed -    
Visibility 10 miles    
Events      
Averages and records for this station are not official NWS values.
T = Trace of Precipitation, MM = Missing Value Source: NWS Daily Summary

Daily Weather History Graph

Daily Weather History Graph

Search for Another Location

Airport or City:

Trip Planner

Search our weather history database for the weather conditions in past years. The results will help you decide how hot, cold, wet, or windy it might be!

Date:

Astronomy

Jan. 31, 2013 Rise Set
Actual Time 7:43 AM CST 6:26 PM CST
Civil Twilight 7:18 AM CST 6:52 PM CST
Nautical Twilight 6:49 AM CST 7:21 PM CST
Astronomical Twilight 6:21 AM CST 7:49 PM CST
Moon 11:06 PM CST (1/31) 10:07 AM CST (1/31)
Length of Visible Light 11h 33m
Length of Day
10h 43m
Waning Gibbous, 79% of the Moon is Illuminated
Jan 31
Waning Gibbous
Feb 3
Last Quarter
Feb 10
New
Feb 17
First Quarter
Feb 25
Full

Hourly Weather History & Observations

Time (CST) Temp. Windchill Dew Point Humidity Pressure Visibility Wind Dir Wind Speed Gust Speed Precip Events Conditions
12:53 AM 37.9 °F 29.6 °F 10.9 °F 33% 30.16 in 10.0 mi SSW 13.8 mph - N/A   Clear
1:53 AM 39.0 °F 31.4 °F 10.0 °F 30% 30.15 in 10.0 mi SSW 12.7 mph - N/A   Clear
2:53 AM 37.9 °F 30.0 °F 10.9 °F 33% 30.14 in 10.0 mi SSW 12.7 mph - N/A   Clear
3:53 AM 37.0 °F 28.9 °F 10.9 °F 34% 30.14 in 10.0 mi SSW 12.7 mph - N/A   Clear
4:53 AM 37.0 °F 28.9 °F 10.9 °F 34% 30.11 in 10.0 mi SSW 12.7 mph - N/A   Clear
5:53 AM 37.0 °F 28.9 °F 10.9 °F 34% 30.14 in 10.0 mi SW 12.7 mph - N/A   Clear
6:53 AM 37.9 °F 30.9 °F 10.0 °F 32% 30.15 in 10.0 mi SW 10.4 mph - N/A   Clear
7:53 AM 37.9 °F 30.0 °F 10.9 °F 33% 30.16 in 10.0 mi SW 12.7 mph - N/A   Clear
8:53 AM 42.1 °F 35.7 °F 12.0 °F 29% 30.19 in 10.0 mi SW 11.5 mph - N/A   Clear
9:53 AM 48.9 °F - 12.9 °F 24% 30.20 in 10.0 mi SW 10.4 mph - N/A   Clear
10:53 AM 55.0 °F - 10.9 °F 17% 30.20 in 10.0 mi WSW 5.8 mph - N/A   Clear
11:53 AM 57.9 °F - 12.0 °F 16% 30.19 in 10.0 mi WNW 8.1 mph - N/A   Clear
12:53 PM 59.0 °F - 14.0 °F 17% 30.15 in 10.0 mi Variable 5.8 mph - N/A   Clear
1:53 PM 62.1 °F - 16.0 °F 17% 30.13 in 10.0 mi NW 6.9 mph - N/A   Clear
2:53 PM 62.1 °F - 16.0 °F 17% 30.11 in 10.0 mi West 5.8 mph - N/A   Clear
3:53 PM 63.0 °F - 15.1 °F 16% 30.10 in 10.0 mi North - - N/A   Clear
4:53 PM 62.1 °F - 12.0 °F 14% 30.11 in 10.0 mi North - - N/A   Clear
5:53 PM 57.9 °F - 16.0 °F 19% 30.13 in 10.0 mi North 5.8 mph - N/A   Clear
6:53 PM 52.0 °F - 17.1 °F 25% 30.16 in 10.0 mi North 3.5 mph - N/A   Clear
7:53 PM 52.0 °F - 15.1 °F 23% 30.17 in 10.0 mi North 3.5 mph - N/A   Clear
8:53 PM 48.9 °F - 19.9 °F 32% 30.18 in 10.0 mi South 4.6 mph - N/A   Clear
9:53 PM 45.0 °F 40.1 °F 19.9 °F 37% 30.19 in 10.0 mi South 9.2 mph - N/A   Clear
10:53 PM 46.9 °F - 18.0 °F 32% 30.17 in 10.0 mi South 9.2 mph - N/A   Clear
11:53 PM 45.0 °F 39.3 °F 19.9 °F 37% 30.18 in 10.0 mi South 11.5 mph - N/A   Clear